Elkins, WV

7:15 AM EDT on September 28, 2016 (GMT -0400)
Elkins-Randolph County

Weather History for KEKN - July, 2013

Change the Weather History Date:

Monday, July 22, 2013

  Actual Average Record
Temperature  
Mean Temperature 75 °F 70 °F  
Max Temperature 83 °F 81 °F 94 °F (1926)
Min Temperature 66 °F 59 °F 41 °F (1966)
Degree Days  
Heating Degree Days 0 0  
Month to date heating degree days 0 8  
Since 1 June heating degree days 12 63  
Since 1 July heating degree days 0 8  
Cooling Degree Days 10 5  
Month to date cooling degree days 195 112  
Year to date cooling degree days 317 227  
Since 1 June cooling degree days 292 204  
Growing Degree Days 24 (Base 50)    
Moisture  
Dew Point 66 °F    
Average Humidity 82    
Maximum Humidity 97    
Minimum Humidity 67    
Precipitation  
Precipitation 1.00 in 0.18 in 1.34 in (1923)
Month to date precipitation 3.44 3.90  
Year to date precipitation 24.00 27.51  
Snow  
Snow 0.00 in - - ()
Month to date snowfall 0.0  
Since 1 September snowfall 77.5  
Snow Depth 0.00 in    
Sea Level Pressure  
Sea Level Pressure 29.92 in    
Wind  
Wind Speed 2 mph (SSE)    
Max Wind Speed 16 mph    
Max Gust Speed 21 mph    
Visibility 8 miles    
Events Rain    
T = Trace of Precipitation, MM = Missing Value Source: NWS Daily Summary

Daily Weather History Graph

Daily Weather History Graph

Search for Another Location

Airport or City:

Trip Planner

Search our weather history database for the weather conditions in past years. The results will help you decide how hot, cold, wet, or windy it might be!

Date:

Astronomy

Jul. 22, 2013 Rise Set
Actual Time 6:12 AM EDT 8:39 PM EDT
Civil Twilight 5:41 AM EDT 9:09 PM EDT
Nautical Twilight 5:03 AM EDT 9:47 PM EDT
Astronomical Twilight 4:21 AM EDT 10:29 PM EDT
Moon 8:25 PM EDT (7/22) 6:05 AM EDT (7/22)
Length of Visible Light 15h 28m
Length of Day
14h 27m
Full, 100% of the Moon is Illuminated
Jul 22
Full
Jul 22
Full
Jul 29
Last Quarter
Aug 6
New
Aug 14
First Quarter

Hourly Weather History & Observations

Time (EDT) Temp. Heat Index Dew Point Humidity Pressure Visibility Wind Dir Wind Speed Gust Speed Precip Events Conditions
12:47 AM 66.2 °F - 64.4 °F 94% 30.03 in 10.0 mi Calm Calm - N/A   Mostly Cloudy
12:51 AM 66.9 °F - 64.9 °F 93% 30.01 in 10.0 mi Calm Calm - N/A   Mostly Cloudy
1:51 AM 66.9 °F - 64.9 °F 93% 30.00 in 10.0 mi Calm Calm - N/A   Partly Cloudy
2:51 AM 66.9 °F - 64.9 °F 93% 29.98 in 10.0 mi Calm Calm - N/A   Overcast
3:02 AM 66.2 °F - 64.4 °F 94% 30.00 in 10.0 mi Calm Calm - N/A   Overcast
3:20 AM 66.2 °F - 64.4 °F 94% 29.99 in 10.0 mi Calm Calm - N/A   Overcast
3:30 AM 66.2 °F - 64.4 °F 94% 29.99 in 10.0 mi Calm Calm - N/A   Overcast
3:51 AM 66.9 °F - 64.9 °F 93% 29.95 in 10.0 mi Calm Calm - 0.01 in   Overcast
4:13 AM 66.2 °F - 64.4 °F 94% 29.98 in 10.0 mi Calm Calm - N/A   Overcast
4:21 AM 66.2 °F - 64.4 °F 94% 29.98 in 10.0 mi Calm Calm - N/A   Overcast
4:51 AM 66.9 °F - 64.9 °F 93% 29.95 in 10.0 mi Calm Calm - N/A   Overcast
5:09 AM 66.2 °F - 64.4 °F 94% 29.99 in 10.0 mi Calm Calm - N/A   Overcast
5:31 AM 66.2 °F - 66.2 °F 100% 29.99 in 2.5 mi Calm Calm - N/A   Overcast
5:39 AM 66.2 °F - 66.2 °F 100% 29.99 in 8.0 mi Calm Calm - N/A   Overcast
5:51 AM 66.9 °F - 64.9 °F 93% 29.95 in 10.0 mi Calm Calm - N/A   Overcast
6:51 AM 68.0 °F - 66.0 °F 93% 29.96 in 10.0 mi Calm Calm - N/A   Overcast
7:51 AM 68.0 °F - 66.0 °F 93% 29.96 in 10.0 mi Calm Calm - N/A   Overcast
8:51 AM 70.0 °F - 66.9 °F 90% 29.97 in 10.0 mi SSE 3.5 mph - 0.00 in Rain Light Rain
9:10 AM 71.6 °F - 68.0 °F 88% 30.00 in 10.0 mi Calm Calm - 0.00 in   Mostly Cloudy
9:26 AM 71.6 °F - 66.2 °F 83% 30.00 in 10.0 mi Calm Calm - 0.00 in   Mostly Cloudy
9:51 AM 73.9 °F - 68.0 °F 82% 29.96 in 10.0 mi Calm Calm - 0.00 in   Mostly Cloudy
10:51 AM 77.0 °F - 66.9 °F 71% 29.95 in 10.0 mi SSW 4.6 mph - N/A   Partly Cloudy
11:51 AM 75.0 °F - 66.9 °F 76% 29.95 in 10.0 mi West 4.6 mph - 0.00 in Rain Light Rain
12:51 PM 80.1 °F 82.1 °F 66.0 °F 62% 29.92 in 10.0 mi SSE 6.9 mph - 0.00 in   Clear
1:51 PM 78.1 °F - 68.0 °F 71% 29.90 in 10.0 mi Calm Calm - 0.02 in   Mostly Cloudy
2:51 PM 80.1 °F 82.7 °F 68.0 °F 67% 29.86 in 10.0 mi North 5.8 mph - N/A   Scattered Clouds
3:51 PM 77.0 °F - 66.0 °F 69% 29.86 in 10.0 mi South 4.6 mph - 0.00 in   Mostly Cloudy
4:35 PM 73.4 °F - 68.0 °F 83% 29.89 in 1.8 mi Variable 3.5 mph - 0.07 in Rain Rain
4:43 PM 71.6 °F - 68.0 °F 88% 29.88 in 1.0 mi ENE 5.8 mph - 0.41 in Rain Heavy Rain
4:49 PM 71.6 °F - 68.0 °F 88% 29.88 in 2.5 mi Calm Calm - 0.63 in Rain Light Rain
4:51 PM 72.0 °F - 69.1 °F 91% 29.85 in 4.0 mi Calm Calm - 0.63 in Rain Light Rain
5:51 PM 75.9 °F - 70.0 °F 82% 29.83 in 10.0 mi SSE 6.9 mph - 0.00 in   Mostly Cloudy
6:12 PM 73.4 °F - 66.2 °F 78% 29.87 in 3.0 mi Calm Calm - 0.09 in Rain Heavy Rain
6:14 PM 71.6 °F - 66.2 °F 83% 29.87 in 2.5 mi South 3.5 mph - 0.11 in Rain Heavy Rain
6:16 PM 71.6 °F - 66.2 °F 83% 29.87 in 3.0 mi Variable 3.5 mph - 0.13 in Rain Heavy Rain
6:24 PM 71.6 °F - 68.0 °F 88% 29.87 in 10.0 mi ESE 3.5 mph - 0.14 in Rain Light Rain
6:51 PM 71.1 °F - 69.1 °F 93% 29.86 in 10.0 mi Calm Calm - 0.14 in   Scattered Clouds
7:51 PM 71.1 °F - 68.0 °F 90% 29.86 in 10.0 mi Calm Calm - N/A   Overcast
8:51 PM 70.0 °F - 68.0 °F 93% 29.86 in 10.0 mi Calm Calm - 0.00 in   Mostly Cloudy
9:51 PM 69.1 °F - 66.0 °F 90% 29.86 in 8.0 mi Calm Calm - 0.10 in Rain Rain
10:37 PM 68.0 °F - 66.2 °F 94% 29.88 in 10.0 mi Calm Calm - 0.03 in Rain Light Rain
10:51 PM 68.0 °F - 66.9 °F 96% 29.85 in 10.0 mi Calm Calm - 0.03 in Rain Light Rain
11:00 PM 68.0 °F - 66.2 °F 94% 29.88 in 7.0 mi Calm Calm - 0.01 in Rain Rain
11:15 PM 68.0 °F - 66.2 °F 94% 29.89 in 8.0 mi Calm Calm - 0.02 in Rain Light Rain
11:25 PM 68.0 °F - 66.2 °F 94% 29.88 in 6.0 mi Calm Calm - 0.05 in Rain Rain
11:33 PM 68.0 °F - 66.2 °F 94% 29.88 in 7.0 mi Calm Calm - 0.06 in Rain Light Rain
11:43 PM 68.0 °F - 66.2 °F 94% 29.88 in 10.0 mi Calm Calm - 0.07 in   Overcast
11:51 PM 68.0 °F - 66.9 °F 96% 29.84 in 10.0 mi Calm Calm - 0.07 in   Overcast